User: anonymous   Login
Location: Batesville
(34.7480°N, 83.6110°W)
Time: 19:09:56
(UTC-04:00)
Language:

Envisat - Orbit

View from above orbital plane
View from above orbital plane
View from above satellite
View from above satellite

Ground track
Ground track

The orbit data is extracted from the following two-line orbital elements,

1 27386U 02009A   18146.61628413 -.00000004 +00000-0 +12419-4 0  9994
2 27386 098.1860 181.6916 0001270 089.9678 079.2043 14.37922619850359
Epoch (UTC): 26 May 2018 14:47:26
Eccentricity: 0.0001270
inclination: 98.1860°
perigee height: 764 km
apogee height: 766 km
right ascension of ascending node: 181.6916°
argument of perigee: 89.9678°
revolutions per day: 14.37922619
mean anomaly at epoch: 79.2043°
orbit number at epoch: 85035

The dashed part of the orbit path shows where the satellite is in the earth's shadow,  

DLR